User: anonymous   Login
Location: Unspecified
(0.0000°N, 0.0000°E)
Time: 15:27:01
(UTC+00:00)
Language:

APRIZESAT 10 - Orbit

View from above orbital plane
View from above orbital plane
View from above satellite
View from above satellite

Ground track
Ground track

The orbit data is extracted from the following two-line orbital elements,

1 40019U 14033K   17229.39153780 -.00000002  00000-0  79231-5 0  9992
2 40019  97.8279  98.5768 0085495 128.7247 232.1641 14.66884504169194
Epoch (UTC): 17 August 2017 09:23:48
Eccentricity: 0.0085495
inclination: 97.8279°
perigee height: 611 km
apogee height: 731 km
right ascension of ascending node: 98.5768°
argument of perigee: 128.7247°
revolutions per day: 14.66884504
mean anomaly at epoch: 232.1641°
orbit number at epoch: 16919

The dashed part of the orbit path shows where the satellite is in the earth's shadow,  

DLR